Regional Weather Roundup
Issued by NWS

Home | Current Version | Previous Version | Text Only | Print | Product List | Glossary On
Versions: 1 2 3 4 5 6 7 8 9 10 11 12 13 14 15 16 17 18 19 20 21 22 23 24 25 26 27 28 29 30 31 32 33 34 35 36 37 38 39 40 41 42 43 44 45 46 47 48 49 50
000
ASUS44 KEWX 241603
RWRTX
SOUTH TEXAS REGIONAL WEATHER ROUNDUP
NATIONAL WEATHER SERVICE AUSTIN/SAN ANTONIO TX
1100 AM CDT SUN MAY 24 2015

NOTE: "FAIR" INDICATED FEW OR NO CLOUDS BELOW 12,000 FEET WITH NO
SIGNIFICANT WEATHER AND/OR OBSTRUCTIONS TO VISIBILITY.

* - THESE STATIONS ARE NOT NWS OR FAA STATIONS...AND ARE NOT SUBJECT
    TO NWS AND FAA QUALITY CONTROL.

TXZ171-172-183>190-241700-
TEXAS HILL COUNTRY AND EDWARDS PLATEAU

CITY           SKY/WX    TMP DP  RH WIND       PRES   REMARKS
JUNCTION       CLOUDY    67  63  87 VRB3      29.93S
*LLANO         CLOUDY    72  66  83 SE5       29.95S
BURNET         CLOUDY    69  63  81 MISG      29.94S
*HORSESHOE BAY CLOUDY    71  65  82 SE3       29.92S
*KERRVILLE     PTSUNNY   72  67  84 S13       29.93S
*FREDERICKSBRG CLOUDY    70  63  78 SE7       29.93R
*ROCKSPRINGS   CLOUDY    70  64  83 S8        29.96S
*BOERNE STAGE    N/A     68  64  88 SE7       29.94R
*CASTROVILLE   CLOUDY    72  68  87 SE8       29.93S
HONDO          MOSUNNY   74  68  81 SE9       29.92S
*UVALDE        CLOUDY    73  67  82 S9        29.92R
DEL RIO        PTSUNNY   73  66  78 S7        29.89S
LAUGHLIN AFB   NOT AVBL
CARRIZO SPRGS  PTSUNNY   77  68  73 SE8       29.88S
$$

TXZ173-191>194-202-209-217>225-228-241700-
CENTRAL AND SOUTH CENTRAL TEXAS

CITY           SKY/WX    TMP DP  RH WIND       PRES   REMARKS
GEORGETOWN     MOSUNNY   72  66  83 S8        29.90F
AUSTIN/BERGSTM CLOUDY    70  68  93 S10       29.92R
AUSTIN/MABRY     N/A    N/A N/A N/A MISG      29.93R
*AUSTIN/EXEC   CLOUDY    72  68  88 S10       29.92R
*LAGO VISTA    CLOUDY    69  65  88 SE3       29.93S
SAN MARCOS     PTSUNNY   72  66  83 SE10      29.93S
NEW BRAUNFELS  CLOUDY    72  68  87 SE13      29.91F
RANDOLPH AFB   CLOUDY    70  68  94 SE10      29.92S
PT SAN ANTONIO CLOUDY    72  70  94 SE8       29.90S
SAN ANTONIO    CLOUDY    71  67  87 SE9       29.93R
STINSON FIELD  CLOUDY    72  70  93 SE9       29.90S
*PLEASANTON    CLOUDY    74  70  85 SE9       29.92S
*LA GRANGE     CLOUDY    73  71  95 S13       29.92F
*GIDDINGS      CLOUDY    70  68  92 S8G17     29.97R
*GONZALES      CLOUDY    71  71  98 SE9       29.92F
$$

TXZ163>164-176>182-195>201-210>213-226-227-235-241700-
SOUTHEAST TEXAS

CITY           SKY/WX    TMP DP  RH WIND       PRES   REMARKS
COLLEGE STN    CLOUDY    72  68  87 S17       29.92S
*BRYAN         CLOUDY    73  69  88 S16G23    29.92S
*CALDWELL      CLOUDY    72  72 100 SE12G22   29.95R
*CROCKETT      NOT AVBL
*BRENHAM       CLOUDY    72  71  99 S8        29.95S
HUNTSVILLE     CLOUDY    72  68  87 S15G21    29.94F
CONROE         CLOUDY    74  68  81 S10       29.97R
HOUSTON BUSH   CLOUDY    73  69  87 S8        29.97R
HOUSTON HOBBY  CLOUDY    73  70  90 S10G18    29.96R
*HOUSTON SW AP NOT AVBL
PEARLAND       CLOUDY    74  70  87 S12G17    29.98R
HOUSTON HOOKS  CLOUDY    74  69  85 S8        29.97R
ELLINGTON FLD  PTSUNNY   72  70  94 S8        29.99R
SUGAR LAND     CLOUDY    75  70  84 S15       29.95S
*HOUSTON EXEC  CLOUDY    73  72  94 S12       29.96F
*CLEVELAND MUN CLOUDY    72  70  94 S7        29.98S
*WHARTON       CLOUDY    74  71  91 SE8       29.96F
*COLUMBUS      CLOUDY    73  70  91 S8        29.95S
$$

TXZ214>216-236>238-241700-
THE UPPER TEXAS COAST

CITY           SKY/WX    TMP DP  RH WIND       PRES   REMARKS
*ORANGE        CLOUDY    71  66  85 S10G17    30.03R
PORT ARTHUR    TSTM      71  70  96 S10       29.98F VSB 1/2
GALVESTON      CLOUDY    74  70  87 S17       29.99F
ANGLETON       CLOUDY    72  71  97 S10       29.96S
*BAY CITY      CLOUDY    76  73  92 S10       29.95F
PALACIOS       CLOUDY    77  71  82 S13G22    29.95S
$$

TXZ229>234-239>247-241700-
TEXAS COASTAL BEND AND RIO GRANDE PLAINS

CITY           SKY/WX    TMP DP  RH WIND       PRES   REMARKS
VICTORIA       CLOUDY    75  72  90 S13       29.94F
*BEEVILLE      CLOUDY    77  75  94 S14       29.93S
ROCKPORT       CLOUDY    78  69  73 S8        29.93R
*PORT ARANSAS  CLOUDY    76  72  87 S12       29.94R
*PORT LAVACA   CLOUDY    76  71  86 S9        29.95R
*INGLESIDE     CLOUDY    79  73  80 SW12      29.93R
CORPUS CHRISTI CLOUDY    77  69  76 S13       29.94R
CORPUS NAS     NOT AVBL
*ROBSTOWN      CLOUDY    77  72  85 S8        29.94R
ALICE          CLOUDY    77  70  79 SE14G24   29.93R
KINGSVILLE NAS NOT AVBL
COTULLA        PTSUNNY   76  68  76 S13       29.90R
*FAITH RANCH     N/A     79  70  73 S8        29.89R
LAREDO         PTSUNNY   78  70  76 SE16      29.91S
$$

TXZ248>255-241700-
DEEP SOUTH TEXAS

CITY           SKY/WX    TMP DP  RH WIND       PRES   REMARKS
BROWNSVILLE    CLOUDY    77  73  87 SE16G23   29.96R
PORT ISABEL    CLOUDY   N/A N/A N/A S17       29.95R
*SOUTH PADRE     N/A     86  86 100 SW16G24   29.96  HX 112
HARLINGEN      CLOUDY    78  73  84 SE17      29.94R
*HEBBRONVILLE    N/A     73  68  84 S14G20    29.94S
MCALLEN        MOSUNNY   81  72  74 S12       29.95R
*WESLACO       CLOUDY    78  70  78 S14       29.93R
FALFURRIAS     CLOUDY    76  70  81 S12       29.95R
EDINBURG       CLOUDY    79  71  75 S10       29.94R
*ZAPATA        CLOUDY    78  69  74 SE9       29.91R
$$

TXZ213>215-236>238-242>244-246-247-251-254-255-241700-
CMAN STATIONS

STATION/POSITION TIME  TEMP    WIND        PRES    WAVE
                       AIR SEA DIR/SP/G            HT/PER
                 (UTC) (F)     (DEG/KT/KT) (MB)    (FT/S)
$$

GMZ080-GMZ150>470-241700-
OFFSHORE BUOY REPORTS

STATION/POSITION TIME  TEMP    WIND        PRES    WAVE
                       AIR SEA DIR/SP/G            HT/PER
                 (UTC) (F)     (DEG/KT/KT) (MB)    (FT/S)
$$


USA.gov is the U.S. government's official web portal to all federal, state and local government web resources and services.